TimeCST,TemperatureF,Dew PointF,Humidity,Sea Level PressureIn,VisibilityMPH,Wind Direction,Wind SpeedMPH,Gust SpeedMPH,PrecipitationIn,Events,Conditions,WindDirDegrees,DateUTC
12:55 AM,37.9,36.0,93,29.93,4.0,East,12.7,-,0.01,Rain,Light Rain,100,2012-12-09 06:55:00
1:55 AM,37.9,37.0,97,29.91,3.0,East,11.5,-,0.01,,Overcast,100,2012-12-09 07:55:00
2:03 AM,37.4,37.4,100,29.88,2.5,ESE,10.4,-,0.01,Rain,Light Rain,110,2012-12-09 08:03:00
2:13 AM,37.4,37.4,100,29.88,4.0,ESE,10.4,-,0.01,Rain,Light Rain,110,2012-12-09 08:13:00
2:55 AM,37.9,37.0,97,29.90,4.0,ESE,9.2,-,0.01,Rain,Light Rain,110,2012-12-09 08:55:00
3:34 AM,37.4,37.4,100,29.86,2.5,East,8.1,-,0.00,,Overcast,100,2012-12-09 09:34:00
3:55 AM,37.9,37.0,97,29.88,2.0,ESE,8.1,-,0.01,,Overcast,110,2012-12-09 09:55:00
4:12 AM,37.4,37.4,100,29.84,2.5,East,8.1,-,0.00,Rain,Light Rain,100,2012-12-09 10:12:00
4:38 AM,37.4,37.4,100,29.85,1.5,East,4.6,-,0.01,,Overcast,100,2012-12-09 10:38:00
4:55 AM,37.9,37.9,100,29.87,1.5,East,3.5,-,0.01,Rain,Light Rain,90,2012-12-09 10:55:00
5:30 AM,37.4,37.4,100,29.84,2.0,East,5.8,-,0.02,,Overcast,100,2012-12-09 11:30:00
5:37 AM,37.4,37.4,100,29.84,1.8,East,4.6,-,0.02,,Overcast,100,2012-12-09 11:37:00
5:55 AM,37.9,37.9,100,29.87,1.8,East,3.5,-,0.03,,Overcast,100,2012-12-09 11:55:00
6:35 AM,39.2,37.4,93,29.84,2.0,East,3.5,-,0.00,,Overcast,100,2012-12-09 12:35:00
6:55 AM,39.0,37.9,96,29.87,2.5,ESE,3.5,-,0.00,,Overcast,110,2012-12-09 12:55:00
7:55 AM,39.0,39.0,100,29.88,1.2,Calm,Calm,-,N/A,,Overcast,0,2012-12-09 13:55:00
8:40 AM,39.2,39.2,100,29.85,0.8,Calm,Calm,-,N/A,,Overcast,0,2012-12-09 14:40:00
8:55 AM,39.9,39.0,97,29.87,0.8,NW,3.5,-,N/A,,Overcast,320,2012-12-09 14:55:00
9:13 AM,39.2,39.2,100,29.85,1.0,Calm,Calm,-,N/A,,Overcast,0,2012-12-09 15:13:00
9:55 AM,39.9,39.9,100,29.87,1.5,WNW,3.5,-,N/A,,Overcast,290,2012-12-09 15:55:00
10:10 AM,39.2,39.2,100,29.85,3.0,WNW,8.1,-,N/A,,Overcast,290,2012-12-09 16:10:00
10:21 AM,39.2,39.2,100,29.85,5.0,West,8.1,-,N/A,,Overcast,280,2012-12-09 16:21:00
10:33 AM,41.0,39.2,93,29.85,8.0,West,9.2,-,N/A,,Overcast,280,2012-12-09 16:33:00
10:55 AM,42.1,39.9,92,29.87,9.0,West,6.9,-,N/A,,Overcast,270,2012-12-09 16:55:00
11:08 AM,41.0,39.2,93,29.84,10.0,WNW,6.9,-,N/A,,Overcast,290,2012-12-09 17:08:00
11:34 AM,42.8,39.2,87,29.83,10.0,West,5.8,-,N/A,,Overcast,280,2012-12-09 17:34:00
11:55 AM,42.1,39.0,89,29.86,10.0,West,9.2,-,N/A,,Overcast,270,2012-12-09 17:55:00
12:55 PM,42.1,37.9,85,29.85,10.0,Variable,5.8,-,N/A,,Overcast,0,2012-12-09 18:55:00
1:55 PM,41.0,37.0,86,29.86,10.0,WNW,9.2,-,N/A,,Overcast,290,2012-12-09 19:55:00
2:15 PM,41.0,37.4,87,29.83,10.0,WNW,8.1,-,N/A,,Overcast,300,2012-12-09 20:15:00
2:22 PM,41.0,37.4,87,29.84,10.0,WNW,10.4,-,N/A,,Overcast,290,2012-12-09 20:22:00
2:55 PM,41.0,37.0,86,29.88,10.0,West,8.1,-,N/A,,Overcast,280,2012-12-09 20:55:00
3:11 PM,41.0,37.4,87,29.84,9.0,West,8.1,-,N/A,,Overcast,280,2012-12-09 21:11:00
3:41 PM,41.0,37.4,87,29.85,9.0,WNW,8.1,-,N/A,,Overcast,290,2012-12-09 21:41:00
3:55 PM,41.0,37.0,86,29.88,8.0,WNW,9.2,-,N/A,,Overcast,290,2012-12-09 21:55:00
4:07 PM,39.2,35.6,87,29.85,6.0,WNW,17.3,23.0,N/A,,Overcast,290,2012-12-09 22:07:00
4:17 PM,39.2,35.6,87,29.85,5.0,WNW,15.0,24.2,N/A,,Overcast,290,2012-12-09 22:17:00
4:45 PM,37.4,33.8,87,29.85,9.0,WNW,11.5,17.3,N/A,,Overcast,300,2012-12-09 22:45:00
4:55 PM,37.0,32.0,82,29.89,10.0,WNW,8.1,-,N/A,,Mostly Cloudy,300,2012-12-09 22:55:00
5:55 PM,34.0,28.9,82,29.92,10.0,WNW,15.0,19.6,N/A,,Mostly Cloudy,300,2012-12-09 23:55:00
6:55 PM,30.0,21.9,72,29.95,10.0,WNW,16.1,24.2,N/A,,Mostly Cloudy,290,2012-12-10 00:55:00
7:55 PM,28.0,19.9,72,29.96,10.0,WNW,15.0,24.2,N/A,,Overcast,290,2012-12-10 01:55:00
8:55 PM,26.1,18.0,71,29.98,10.0,WNW,17.3,21.9,N/A,,Overcast,290,2012-12-10 02:55:00
9:55 PM,24.1,17.1,75,29.98,10.0,WNW,15.0,21.9,N/A,,Overcast,290,2012-12-10 03:55:00
10:55 PM,21.9,15.1,75,29.99,10.0,WNW,19.6,25.3,N/A,,Overcast,290,2012-12-10 04:55:00
11:55 PM,21.0,14.0,74,29.99,10.0,WNW,17.3,24.2,N/A,,Overcast,300,2012-12-10 05:55:00